sat.trackr.live / text

‹ back to catalog

STARLINK-3975

NORAD 52620 · 2022-052Y

PAYLOAD ACTIVE UNKNOWN

§ Identity

Operator
Country
US
Launch date
2022-05-14
Launch site
AFETR
Launch vehicle
Mass (kg)
RCS (m²)

Purposes: comms

External: N2YO · Heavens-Above · Gunter

§ Orbital elements

Epoch: 2026-05-24T15:34:56.375904Z

Period
95.44 min
Inclination
53.2131°
Eccentricity
0.0001563
Mean motion
15.08844762 rev/d
Perigee alt
538.6 km
Apogee alt
540.8 km
Semi-major
6,917.9 km
B*
-4.1216e-5
RAAN
303.1215°
Arg perigee
93.9921°
Mean anomaly
266.1250°
Rev number
22,224

§ Raw data

STARLINK-39751 52620U 22052Y   26144.64926361 -.00000944  00000+0 -41216-4 0  99962 52620  53.2131 303.1215 0001563  93.9921 266.1250 15.08844762222244

JSON: /api/v1/satellites/52620 · /tle

For live sub-satellite position, see the globe view (requires WebGL).

§ Visibility from observer

Set your observer location to see the next 7 days of passes ≥ 10°. The values pass through the URL so the page stays shareable.

No JS? Fill the form by hand. The geolocation button needs JavaScript.